Hourly Weather Godzianow

Today, 15 May, Saturday

Time Temperature Precipitation Wind Pressure Humidity
00:00 +10°C° 0 mm 4 mps 741 mmHg 88%
01:00 +9°C° 0 mm 3 mps 741 mmHg 89%
02:00 +8°C° 0 mm 4 mps 741 mmHg 89%
03:00 +8°C° 0 mm 4 mps 741 mmHg 89%
04:00 +8°C° 0 mm 4 mps 741 mmHg 89%
05:00 +9°C° 0 mm 5 mps 742 mmHg 84%
06:00 +10°C° 0 mm 5 mps 742 mmHg 79%
07:00 +10°C° 0 mm 5 mps 742 mmHg 74%
08:00 +13°C° 0 mm 5 mps 742 mmHg 70%
09:00 +14°C° 0 mm 5 mps 743 mmHg 65%
10:00 +15°C° 0 mm 4 mps 743 mmHg 61%
11:00 +17°C° 0 mm 4 mps 742 mmHg 58%
12:00 +18°C° 0 mm 3 mps 742 mmHg 54%
13:00 +19°C° 0 mm 3 mps 742 mmHg 51%
14:00 +19°C° 0 mm 2 mps 742 mmHg 53%
15:00 +18°C° 0 mm 2 mps 742 mmHg 55%
16:00 +19°C° 0 mm 1 mps 742 mmHg 58%
17:00 +17°C° 0 mm 2 mps 742 mmHg 62%
18:00 +16°C° 0 mm 2 mps 741 mmHg 66%
19:00 +14°C° 0 mm 3 mps 741 mmHg 71%
20:00 +14°C° 0 mm 3 mps 741 mmHg 73%
21:00 +13°C° 0 mm 3 mps 741 mmHg 75%
22:00 +12°C° 0 mm 3 mps 741 mmHg 77%
23:00 +12°C° 0.1 mm 3 mps 741 mmHg 80%

Tomorrow, 16 May, Sunday

Time Temperature Precipitation Wind Pressure Humidity
00:00 +12°C° 0.1 mm 3 mps 741 mmHg 83%
01:00 +12°C° 0.1 mm 3 mps 741 mmHg 86%
02:00 +13°C° 0.5 mm 2 mps 741 mmHg 90%
03:00 +12°C° 0.5 mm 2 mps 741 mmHg 93%
04:00 +12°C° 0.5 mm 2 mps 741 mmHg 96%
05:00 +13°C° 0.3 mm 1 mps 741 mmHg 94%
06:00 +13°C° 0.3 mm 1 mps 741 mmHg 91%
07:00 +14°C° 0.3 mm 1 mps 741 mmHg 88%
08:00 +15°C° 0.1 mm 2 mps 741 mmHg 82%
09:00 +16°C° 0.1 mm 2 mps 741 mmHg 76%
10:00 +17°C° 0.1 mm 2 mps 741 mmHg 70%
11:00 +17°C° 0.6 mm 2 mps 740 mmHg 70%
12:00 +17°C° 0.6 mm 2 mps 740 mmHg 70%
13:00 +17°C° 0.6 mm 2 mps 740 mmHg 70%
14:00 +16°C° 1.3 mm 2 mps 740 mmHg 77%
15:00 +15°C° 1.3 mm 2 mps 739 mmHg 84%
16:00 +14°C° 1.3 mm 2 mps 739 mmHg 91%
17:00 +13°C° 1.4 mm 2 mps 739 mmHg 93%
18:00 +13°C° 1.4 mm 2 mps 739 mmHg 94%
19:00 +13°C° 1.4 mm 1 mps 739 mmHg 95%
20:00 +12°C° 0.1 mm 1 mps 739 mmHg 95%
21:00 +12°C° 0.1 mm 1 mps 739 mmHg 94%
22:00 +11°C° 0.1 mm 1 mps 739 mmHg 94%
23:00 +11°C° 0 mm 1 mps 739 mmHg 93%

Day after tomorrow, 17 May, Monday

Time Temperature Precipitation Wind Pressure Humidity
00:00 +9°C° 0 mm 2 mps 739 mmHg 93%
01:00 +9°C° 0 mm 2 mps 739 mmHg 93%
02:00 +9°C° 0 mm 2 mps 740 mmHg 93%
03:00 +8°C° 0 mm 2 mps 740 mmHg 93%
04:00 +8°C° 0 mm 2 mps 740 mmHg 93%
05:00 +10°C° 0 mm 3 mps 740 mmHg 89%
06:00 +11°C° 0 mm 3 mps 740 mmHg 85%
07:00 +13°C° 0 mm 3 mps 740 mmHg 81%
08:00 +13°C° 0.1 mm 3 mps 740 mmHg 78%
09:00 +14°C° 0.1 mm 4 mps 740 mmHg 75%
10:00 +15°C° 0.1 mm 4 mps 740 mmHg 71%
11:00 +15°C° 0.2 mm 4 mps 740 mmHg 70%
12:00 +17°C° 0.2 mm 4 mps 740 mmHg 69%
13:00 +16°C° 0.2 mm 5 mps 740 mmHg 68%
14:00 +15°C° 0.3 mm 4 mps 740 mmHg 73%
15:00 +14°C° 0.3 mm 3 mps 740 mmHg 78%
16:00 +14°C° 0.3 mm 3 mps 740 mmHg 82%
17:00 +13°C° 0.4 mm 3 mps 740 mmHg 84%
18:00 +12°C° 0.4 mm 3 mps 740 mmHg 86%
19:00 +12°C° 0.4 mm 3 mps 739 mmHg 87%
20:00 +13°C° 0.4 mm 2 mps 740 mmHg 89%
21:00 +12°C° 0.4 mm 2 mps 740 mmHg 90%
22:00 +12°C° 0.4 mm 2 mps 740 mmHg 91%
23:00 +10°C° 0 mm 3 mps 740 mmHg 92%

18 May, Tuesday

Time Temperature Precipitation Wind Pressure Humidity
00:00 +10°C° 0 mm 4 mps 740 mmHg 93%
01:00 +8°C° 0 mm 4 mps 740 mmHg 94%
02:00 +7°C° 0 mm 4 mps 740 mmHg 95%
03:00 +7°C° 0 mm 4 mps 740 mmHg 95%
04:00 +6°C° 0 mm 4 mps 740 mmHg 95%
05:00 +7°C° 0 mm 5 mps 740 mmHg 92%
06:00 +8°C° 0 mm 5 mps 741 mmHg 88%
07:00 +9°C° 0 mm 6 mps 741 mmHg 85%
08:00 +10°C° 0.2 mm 6 mps 741 mmHg 81%
09:00 +11°C° 0.2 mm 6 mps 741 mmHg 76%
10:00 +13°C° 0.2 mm 6 mps 741 mmHg 72%
11:00 +13°C° 0.2 mm 6 mps 741 mmHg 73%
12:00 +13°C° 0.2 mm 6 mps 742 mmHg 74%
13:00 +13°C° 0.2 mm 5 mps 742 mmHg 75%
14:00 +13°C° 0.1 mm 5 mps 742 mmHg 73%
15:00 +14°C° 0.1 mm 6 mps 742 mmHg 72%
16:00 +14°C° 0.1 mm 6 mps 742 mmHg 71%
17:00 +13°C° 0.2 mm 5 mps 742 mmHg 76%
18:00 +12°C° 0.2 mm 4 mps 742 mmHg 81%
19:00 +11°C° 0.2 mm 3 mps 743 mmHg 86%
20:00 +10°C° 0 mm 3 mps 743 mmHg 88%
21:00 +9°C° 0 mm 3 mps 743 mmHg 91%
22:00 +8°C° 0 mm 3 mps 743 mmHg 93%
23:00 +8°C° 0 mm 3 mps 744 mmHg 94%

19 May, Wednesday

Time Temperature Precipitation Wind Pressure Humidity
00:00 +8°C° 0 mm 3 mps 744 mmHg 94%
01:00 +7°C° 0 mm 3 mps 744 mmHg 94%
02:00 +7°C° 0 mm 3 mps 744 mmHg 95%
03:00 +7°C° 0 mm 3 mps 744 mmHg 95%
04:00 +5°C° 0 mm 3 mps 744 mmHg 95%
05:00 +7°C° 0 mm 4 mps 744 mmHg 91%
06:00 +8°C° 0 mm 4 mps 745 mmHg 86%
07:00 +11°C° 0 mm 4 mps 745 mmHg 82%
08:00 +12°C° 0.2 mm 5 mps 745 mmHg 78%
09:00 +13°C° 0.2 mm 5 mps 745 mmHg 74%
10:00 +14°C° 0.2 mm 5 mps 745 mmHg 71%
11:00 +14°C° 0.2 mm 5 mps 745 mmHg 67%
12:00 +14°C° 0.2 mm 5 mps 745 mmHg 64%
13:00 +14°C° 0.2 mm 5 mps 745 mmHg 60%
14:00 +14°C° 0 mm 5 mps 745 mmHg 60%
15:00 +14°C° 0 mm 5 mps 746 mmHg 60%
16:00 +14°C° 0 mm 5 mps 746 mmHg 59%
17:00 +13°C° 0 mm 4 mps 746 mmHg 65%
18:00 +12°C° 0 mm 4 mps 746 mmHg 72%
19:00 +10°C° 0 mm 3 mps 746 mmHg 78%
20:00 +10°C° 0 mm 3 mps 746 mmHg 81%
21:00 +9°C° 0 mm 3 mps 746 mmHg 84%
22:00 +8°C° 0 mm 3 mps 747 mmHg 87%
23:00 +8°C° 0 mm 3 mps 747 mmHg 88%

20 May, Thursday

Time Temperature Precipitation Wind Pressure Humidity
00:00 +7°C° 0 mm 3 mps 747 mmHg 90%
01:00 +7°C° 0 mm 3 mps 747 mmHg 92%
02:00 +5°C° 0 mm 3 mps 747 mmHg 93%
03:00 +5°C° 0 mm 3 mps 747 mmHg 94%
04:00 +5°C° 0 mm 3 mps 747 mmHg 95%
05:00 +6°C° 0 mm 4 mps 747 mmHg 89%
06:00 +8°C° 0 mm 5 mps 747 mmHg 84%
07:00 +10°C° 0 mm 5 mps 748 mmHg 78%
08:00 +12°C° 0.1 mm 5 mps 748 mmHg 74%
09:00 +13°C° 0.1 mm 5 mps 747 mmHg 69%
10:00 +14°C° 0.1 mm 6 mps 747 mmHg 65%
11:00 +14°C° 0.2 mm 5 mps 747 mmHg 66%
12:00 +13°C° 0.2 mm 5 mps 747 mmHg 68%
13:00 +13°C° 0.2 mm 5 mps 747 mmHg 69%
14:00 +13°C° 0.2 mm 5 mps 747 mmHg 69%
15:00 +13°C° 0.2 mm 5 mps 747 mmHg 68%
16:00 +14°C° 0.2 mm 5 mps 747 mmHg 68%
17:00 +13°C° 0.1 mm 4 mps 747 mmHg 73%
18:00 +12°C° 0.1 mm 3 mps 746 mmHg 78%
19:00 +11°C° 0.1 mm 3 mps 746 mmHg 83%
20:00 +10°C° 0 mm 3 mps 746 mmHg 85%
21:00 +9°C° 0 mm 3 mps 746 mmHg 88%
22:00 +8°C° 0 mm 3 mps 746 mmHg 90%
23:00 +8°C° 0 mm 3 mps 746 mmHg 90%
Show more